This is the latest recevied weather packets stored in our database for station/object K3JSE-2. If no packets are shown the sender has not sent any weather packets the latest 1 day(s).
| Time | Temp. | Humidity | Pressure | Rain* | Wind** | Luminosity | Snow |
|---|---|---|---|---|---|---|---|
| 1778111190 | 17.78° C | 83% | 1007.8 hPa | 0 mm | - | - | - |
| 1778110550 | 17.78° C | 83% | 1007.8 hPa | 0 mm | - | - | - |
| 1778109120 | 17.78° C | 82% | 1007.7 hPa | 0 mm | - | - | - |
| 1778107700 | 18.33° C | 82% | 1007.9 hPa | 0 mm | - | - | - |
| 1778104450 | 17.78° C | 83% | 1007.7 hPa | 0 mm | - | - | - |
| 1778104017 | 17.78° C | 82% | 1007.7 hPa | 0 mm | - | - | - |
| 1778103785 | 17.78° C | 82% | 1007.6 hPa | 0 mm | - | - | - |
| 1778102450 | 17.78° C | 82% | 1007.3 hPa | 0 mm | - | - | - |
| 1778101765 | 17.78° C | 82% | 1007.3 hPa | 0 mm | - | - | - |
| 1778101092 | 17.78° C | 82% | 1007.2 hPa | 0 mm | - | - | - |
| 1778099780 | 17.78° C | 83% | 1007.3 hPa | 0 mm | - | - | - |
| 1778099105 | 17.78° C | 83% | 1007.2 hPa | 0 mm | - | - | - |
| 1778096930 | 17.22° C | 84% | 1007.4 hPa | 0 mm | - | - | - |
| 1778094775 | 16.67° C | 85% | 1007.6 hPa | 0 mm | - | - | - |
| 1778092710 | 15.56° C | 88% | 1007.9 hPa | 0 mm | - | - | - |
| 1778091325 | 15.56° C | 88% | 1008.3 hPa | 0 mm | - | - | - |
| 1778089180 | 15.56° C | 88% | 1008.1 hPa | 0 mm | - | - | - |
| 1778087070 | 15° C | 88% | 1008.1 hPa | 0 mm | - | - | - |
| 1778086416 | 15° C | 88% | 1008.3 hPa | 0 mm | - | - | - |
| 1778085650 | 15.56° C | 89% | 1008.2 hPa | 0 mm | - | - | - |
| 1778084988 | 15.56° C | 89% | 1008.3 hPa | 0 mm | - | - | - |
| 1778084729 | 15.56° C | 90% | 1008.4 hPa | 0 mm | - | - | - |
| 1778081245 | 15° C | 89% | 1009.6 hPa | 0 mm | - | - | - |
| 1778079965 | 15° C | 88% | 1009.6 hPa | 0 mm | - | - | - |
| 1778078572 | 15.56° C | 87% | 1009.4 hPa | 0 mm | - | - | - |
* Rain latest hour (hover to see other rain measurements)
** Current wind speed in m/s (hover to see current wind gust speed)